QPF
0.00 0.00 0.01 0.01 0.01 0.01 0.01 0.02 0.02 0.02 0.02 0.02 0.02 0.02 0.02 0.02 0.02 0.02 0.02 0.02 0.03 0.03 0.03 0.03 0.02 0.02 0.02 0.02 0.02 0.02 0.02 0.02 0.02 0.01 0.01 0.01 0.01 0.01 0.01 0.01 0.01 0.01 0.02
0.00 0.00 0.01 0.01 0.01 0.01 0.01 0.01 0.01 0.02 0.02 0.01 0.01 0.01 0.02 0.02 0.02 0.02 0.02 0.02 0.02 0.04 0.03 0.04 0.04 0.02 0.02 0.02 0.02 0.01 0.01 0.01 0.01 0.01 0.00 0.00 0.01 0.01 0.01 0.00 0.01 0.02 0.02
0.00 0.01 0.01 0.01 0.01 0.01 0.01 0.01 0.01 0.01 0.02 0.02 0.01 0.02 0.02 0.02 0.02 0.01 0.02 0.02 0.03 0.03 0.03 0.04 0.04 0.03 0.02 0.02 0.01 0.01 0.01 0.01 0.01 0.01 0.00 0.01 0.01 0.01 0.01 0.01 0.01 0.01 0.01
0.00 0.01 0.01 0.01 0.01 0.01 0.01 0.01 0.01 0.01 0.01 0.02 0.02 0.02 0.03 0.03 0.02 0.02 0.02 0.02 0.03 0.03 0.02 0.02 0.04 0.03 0.02 0.01 0.01 0.01 0.01 0.01 0.01 0.01 0.01 0.01 0.01 0.01 0.01 0.01 0.02 0.02 0.01
0.00 0.01 0.01 0.01 0.01 0.01 0.01 0.01 0.01 0.01 0.01 0.01 0.02 0.03 0.03 0.04 0.04 0.03 0.03 0.03 0.03 0.02 0.02 0.02 0.02 0.03 0.02 0.01 0.01 0.01 0.00 0.00 0.00 0.00 0.00 0.00 0.01 0.03 0.02 0.02 0.01 0.01 0.01
0.01 0.01 0.01 0.01 0.01 0.01 0.01 0.01 0.01 0.01 0.01 0.01 0.02 0.03 0.04 0.04 0.05 0.05 0.03 0.03 0.02 0.02 0.02 0.02 0.01 0.01 0.01 0.01 0.01 0.00 0.00 0.00 0.00 0.00 0.00 0.01 0.03 0.04 0.03 0.02 0.01 0.01 0.01
0.01 0.01 0.01 0.02 0.02 0.02 0.02 0.02 0.01 0.01 0.02 0.01 0.02 0.02 0.03 0.04 0.03 0.04 0.03 0.02 0.01 0.01 0.02 0.02 0.02 0.01 0.01 0.01 0.00 0.00 0.00 0.00 0.00 0.00 0.01 0.02 0.03 0.02 0.02 0.02 0.01 0.01 0.01
0.01 0.02 0.02 0.03 0.02 0.02 0.02 0.02 0.01 0.01 0.02 0.02 0.02 0.02 0.03 0.04 0.04 0.04 0.03 0.03 0.02 0.01 0.02 0.02 0.02 0.02 0.01 0.01 0.00 0.00 0.00 0.00 0.00 0.00 0.01 0.02 0.03 0.03 0.02 0.01 0.01 0.01 0.01
0.02 0.02 0.02 0.03 0.02 0.03 0.03 0.03 0.02 0.02 0.02 0.02 0.02 0.02 0.02 0.02 0.03 0.03 0.03 0.02 0.03 0.03 0.02 0.02 0.02 0.02 0.01 0.01 0.01 0.00 0.00 0.00 0.00 0.00 0.01 0.03 0.03 0.02 0.02 0.01 0.01 0.01 0.01
0.02 0.02 0.03 0.03 0.03 0.02 0.03 0.04 0.03 0.02 0.02 0.02 0.01 0.01 0.01 0.01 0.01 0.02 0.01 0.02 0.02 0.04 0.03 0.03 0.02 0.02 0.02 0.01 0.01 0.00 0.00 0.00 0.00 0.00 0.01 0.03 0.03 0.02 0.01 0.01 0.01 0.01 0.01
0.02 0.03 0.03 0.04 0.04 0.03 0.03 0.02 0.03 0.02 0.01 0.01 0.01 0.01 0.01 0.01 0.01 0.01 0.01 0.01 0.02 0.04 0.05 0.04 0.03 0.02 0.02 0.01 0.01 0.00 0.00 0.01 0.01 0.02 0.02 0.03 0.04 0.03 0.03 0.03 0.02 0.01 0.01
0.02 0.02 0.03 0.04 0.05 0.04 0.04 0.04 0.03 0.02 0.02 0.01 0.01 0.01 0.02 0.02 0.01 0.01 0.01 0.02 0.02 0.03 0.04 0.05 0.06 0.04 0.02 0.02 0.01 0.00 0.01 0.01 0.01 0.02 0.02 0.02 0.04 0.04 0.04 0.03 0.02 0.01 0.01
0.01 0.02 0.02 0.03 0.05 0.06 0.06 0.06 0.05 0.03 0.03 0.03 0.01 0.01 0.01 0.01 0.01 0.01 0.02 0.02 0.03 0.03 0.04 0.04 0.06 0.06 0.05 0.03 0.02 0.01 0.01 0.01 0.02 0.02 0.01 0.02 0.03 0.03 0.03 0.03 0.02 0.01 0.01
0.02 0.02 0.02 0.03 0.06 0.09 0.07 0.06 0.06 0.05 0.03 0.03 0.03 0.01 0.01 0.01 0.01 0.01 0.02 0.02 0.03 0.02 0.02 0.03 0.03 0.04 0.03 0.03 0.03 0.02 0.02 0.01 0.01 0.02 0.02 0.02 0.02 0.03 0.02 0.02 0.02 0.02 0.01
0.02 0.02 0.02 0.03 0.05 0.07 0.06 0.04 0.04 0.05 0.04 0.03 0.03 0.01 0.01 0.02 0.02 0.01 0.01 0.02 0.02 0.02 0.02 0.02 0.03 0.04 0.04 0.03 0.02 0.02 0.02 0.01 0.01 0.01 0.01 0.02 0.02 0.03 0.03 0.02 0.02 0.02 0.02
0.02 0.01 0.02 0.03 0.03 0.04 0.04 0.04 0.03 0.03 0.04 0.03 0.03 0.01 0.01 0.01 0.02 0.02 0.01 0.01 0.01 0.02 0.02 0.01 0.01 0.03 0.03 0.03 0.02 0.02 0.01 0.01 0.01 0.01 0.01 0.01 0.01 0.02 0.02 0.03 0.03 0.03 0.03
0.02 0.02 0.02 0.02 0.03 0.03 0.02 0.03 0.03 0.03 0.03 0.03 0.03 0.02 0.01 0.01 0.02 0.02 0.02 0.01 0.01 0.02 0.02 0.02 0.01 0.02 0.02 0.02 0.02 0.02 0.02 0.01 0.01 0.01 0.01 0.00 0.01 0.01 0.01 0.02 0.03 0.03 0.04
0.03 0.04 0.03 0.02 0.02 0.03 0.02 0.02 0.02 0.02 0.03 0.04 0.03 0.03 0.02 0.01 0.01 0.02 0.02 0.01 0.01 0.02 0.03 0.02 0.02 0.01 0.02 0.01 0.01 0.01 0.01 0.01 0.01 0.01 0.01 0.01 0.01 0.00 0.01 0.01 0.02 0.02 0.03
0.03 0.04 0.04 0.03 0.03 0.03 0.03 0.02 0.02 0.02 0.02 0.02 0.03 0.03 0.02 0.02 0.01 0.01 0.02 0.02 0.01 0.02 0.02 0.03 0.02 0.02 0.02 0.02 0.02 0.01 0.01 0.01 0.01 0.01 0.01 0.01 0.01 0.01 0.01 0.01 0.01 0.02 0.02
0.03 0.04 0.06 0.05 0.05 0.04 0.04 0.03 0.02 0.02 0.02 0.02 0.02 0.01 0.02 0.02 0.02 0.01 0.02 0.03 0.03 0.02 0.02 0.02 0.02 0.02 0.02 0.02 0.02 0.01 0.01 0.01 0.01 0.01 0.01 0.01 0.01 0.01 0.01 0.01 0.01 0.01 0.01
0.02 0.03 0.04 0.05 0.05 0.04 0.03 0.02 0.02 0.02 0.02 0.01 0.01 0.01 0.01 0.02 0.03 0.03 0.02 0.03 0.03 0.03 0.02 0.02 0.03 0.03 0.03 0.02 0.02 0.02 0.01 0.01 0.01 0.01 0.01 0.01 0.01 0.01 0.01 0.01 0.01 0.01 0.01
0.01 0.02 0.03 0.03 0.03 0.04 0.03 0.02 0.02 0.02 0.02 0.02 0.01 0.01 0.01 0.01 0.02 0.02 0.03 0.04 0.04 0.03 0.03 0.02 0.02 0.02 0.03 0.03 0.03 0.02 0.02 0.02 0.02 0.01 0.01 0.01 0.01 0.01 0.00 0.00 0.00 0.01 0.01
0.02 0.01 0.02 0.02 0.02 0.04 0.04 0.03 0.02 0.03 0.03 0.04 0.02 0.02 0.01 0.01 0.01 0.02 0.04 0.05 0.05 0.04 0.03 0.02 0.02 0.01 0.01 0.01 0.02 0.02 0.01 0.01 0.01 0.02 0.02 0.02 0.01 0.01 0.01 0.01 0.01 0.02 0.02
0.01 0.02 0.02 0.02 0.02 0.03 0.04 0.03 0.02 0.02 0.02 0.02 0.02 0.02 0.02 0.02 0.02 0.02 0.03 0.06 0.07 0.05 0.04 0.04 0.02 0.01 0.01 0.01 0.01 0.01 0.01 0.00 0.01 0.01 0.02 0.02 0.02 0.02 0.02 0.02 0.02 0.03 0.03
0.01 0.02 0.01 0.01 0.02 0.02 0.02 0.03 0.03 0.02 0.02 0.02 0.02 0.03 0.03 0.03 0.02 0.02 0.03 0.05 0.05 0.05 0.05 0.05 0.04 0.02 0.01 0.01 0.01 0.01 0.00 0.00 0.00 0.00 0.01 0.01 0.01 0.02 0.02 0.01 0.01 0.02 0.03
0.01 0.01 0.01 0.01 0.02 0.02 0.02 0.02 0.02 0.03 0.03 0.02 0.02 0.02 0.02 0.02 0.02 0.02 0.02 0.03 0.05 0.05 0.04 0.04 0.03 0.02 0.01 0.01 0.01 0.01 0.00 0.00 0.00 0.00 0.00 0.00 0.01 0.01 0.02 0.02 0.01 0.02 0.02
MSLP
1014.50 1014.40 1014.30 1014.22 1014.14 1014.08 1014.02 1013.95 1013.87 1013.76 1013.63 1013.51 1013.42 1013.37 1013.39 1013.47 1013.59 1013.74 1013.90 1014.03 1014.13 1014.21 1014.28 1014.36 1014.47 1014.63 1014.82 1015.04 1015.26 1015.45 1015.62 1015.74 1015.84 1015.92 1016.01 1016.11 1016.24 1016.38 1016.53 1016.66 1016.77 1016.85 1016.90
1014.47 1014.43 1014.40 1014.38 1014.38 1014.37 1014.34 1014.27 1014.16 1014.01 1013.83 1013.65 1013.50 1013.40 1013.38 1013.42 1013.52 1013.65 1013.79 1013.92 1014.03 1014.13 1014.23 1014.35 1014.50 1014.70 1014.93 1015.16 1015.39 1015.59 1015.75 1015.87 1015.96 1016.05 1016.15 1016.27 1016.42 1016.59 1016.76 1016.91 1017.03 1017.11 1017.17
1014.41 1014.41 1014.44 1014.48 1014.53 1014.57 1014.57 1014.51 1014.40 1014.22 1014.01 1013.79 1013.60 1013.46 1013.38 1013.37 1013.41 1013.50 1013.60 1013.70 1013.80 1013.92 1014.05 1014.22 1014.43 1014.67 1014.94 1015.21 1015.46 1015.66 1015.82 1015.94 1016.03 1016.13 1016.24 1016.39 1016.57 1016.76 1016.95 1017.12 1017.26 1017.35 1017.41
1014.32 1014.34 1014.40 1014.49 1014.58 1014.65 1014.68 1014.64 1014.54 1014.37 1014.15 1013.92 1013.69 1013.51 1013.38 1013.30 1013.28 1013.29 1013.34 1013.40 1013.49 1013.61 1013.78 1013.99 1014.26 1014.57 1014.89 1015.20 1015.47 1015.68 1015.85 1015.96 1016.06 1016.17 1016.30 1016.47 1016.67 1016.89 1017.11 1017.29 1017.44 1017.55 1017.62
1014.21 1014.25 1014.32 1014.42 1014.53 1014.62 1014.67 1014.65 1014.57 1014.42 1014.22 1013.99 1013.76 1013.56 1013.38 1013.25 1013.15 1013.09 1013.06 1013.08 1013.14 1013.27 1013.46 1013.73 1014.06 1014.43 1014.80 1015.15 1015.44 1015.67 1015.84 1015.96 1016.07 1016.19 1016.34 1016.53 1016.75 1016.99 1017.22 1017.43 1017.59 1017.71 1017.80
1014.11 1014.15 1014.22 1014.33 1014.43 1014.52 1014.57 1014.57 1014.50 1014.38 1014.21 1014.01 1013.80 1013.58 1013.38 1013.20 1013.04 1012.91 1012.82 1012.79 1012.83 1012.96 1013.18 1013.49 1013.87 1014.30 1014.72 1015.10 1015.41 1015.66 1015.83 1015.96 1016.07 1016.20 1016.36 1016.57 1016.82 1017.08 1017.32 1017.54 1017.72 1017.85 1017.96
1014.05 1014.08 1014.15 1014.23 1014.31 1014.38 1014.42 1014.41 1014.36 1014.26 1014.13 1013.96 1013.78 1013.58 1013.38 1013.17 1012.96 1012.78 1012.64 1012.57 1012.59 1012.72 1012.97 1013.32 1013.75 1014.21 1014.67 1015.07 1015.40 1015.65 1015.83 1015.96 1016.08 1016.22 1016.40 1016.63 1016.90 1017.17 1017.43 1017.66 1017.84 1017.99 1018.12
1014.02 1014.05 1014.11 1014.16 1014.21 1014.25 1014.25 1014.23 1014.18 1014.09 1013.99 1013.86 1013.71 1013.54 1013.34 1013.12 1012.90 1012.69 1012.52 1012.42 1012.43 1012.57 1012.84 1013.22 1013.68 1014.17 1014.65 1015.07 1015.40 1015.65 1015.82 1015.96 1016.09 1016.25 1016.46 1016.71 1016.99 1017.29 1017.56 1017.80 1017.99 1018.15 1018.28
1014.01 1014.05 1014.09 1014.12 1014.14 1014.13 1014.09 1014.03 1013.96 1013.89 1013.80 1013.70 1013.58 1013.44 1013.26 1013.05 1012.82 1012.59 1012.41 1012.30 1012.31 1012.46 1012.74 1013.14 1013.62 1014.14 1014.62 1015.04 1015.38 1015.62 1015.80 1015.95 1016.09 1016.28 1016.51 1016.80 1017.11 1017.42 1017.71 1017.96 1018.16 1018.32 1018.47
1013.98 1014.03 1014.07 1014.08 1014.05 1014.00 1013.92 1013.83 1013.73 1013.64 1013.56 1013.48 1013.39 1013.27 1013.11 1012.91 1012.68 1012.45 1012.27 1012.16 1012.17 1012.33 1012.62 1013.04 1013.53 1014.05 1014.54 1014.96 1015.29 1015.53 1015.72 1015.88 1016.06 1016.27 1016.55 1016.87 1017.21 1017.55 1017.87 1018.13 1018.34 1018.52 1018.67
1013.88 1013.95 1013.98 1013.98 1013.93 1013.84 1013.72 1013.59 1013.46 1013.36 1013.27 1013.20 1013.12 1013.02 1012.87 1012.68 1012.46 1012.23 1012.04 1011.94 1011.96 1012.12 1012.42 1012.84 1013.34 1013.87 1014.35 1014.77 1015.11 1015.36 1015.56 1015.75 1015.95 1016.21 1016.53 1016.89 1017.28 1017.66 1018.00 1018.29 1018.52 1018.70 1018.87
1013.68 1013.76 1013.80 1013.79 1013.72 1013.60 1013.45 1013.29 1013.15 1013.02 1012.93 1012.86 1012.78 1012.69 1012.55 1012.36 1012.14 1011.91 1011.72 1011.62 1011.63 1011.80 1012.10 1012.53 1013.04 1013.56 1014.06 1014.48 1014.83 1015.10 1015.32 1015.54 1015.79 1016.10 1016.46 1016.87 1017.30 1017.72 1018.09 1018.41 1018.66 1018.86 1019.05
1013.36 1013.45 1013.50 1013.48 1013.40 1013.27 1013.10 1012.93 1012.76 1012.63 1012.53 1012.45 1012.38 1012.29 1012.15 1011.97 1011.74 1011.51 1011.31 1011.20 1011.21 1011.37 1011.68 1012.12 1012.63 1013.17 1013.68 1014.12 1014.49 1014.79 1015.05 1015.30 1015.59 1015.94 1016.34 1016.80 1017.26 1017.71 1018.12 1018.46 1018.75 1018.98 1019.18
1012.95 1013.05 1013.10 1013.08 1013.00 1012.85 1012.67 1012.49 1012.31 1012.17 1012.07 1012.00 1011.93 1011.84 1011.70 1011.52 1011.29 1011.04 1010.84 1010.72 1010.73 1010.89 1011.21 1011.65 1012.18 1012.74 1013.28 1013.75 1014.16 1014.49 1014.79 1015.08 1015.41 1015.79 1016.22 1016.70 1017.19 1017.66 1018.09 1018.46 1018.77 1019.04 1019.28
1012.52 1012.62 1012.66 1012.63 1012.54 1012.38 1012.19 1011.99 1011.81 1011.67 1011.58 1011.51 1011.45 1011.36 1011.22 1011.04 1010.81 1010.56 1010.35 1010.23 1010.24 1010.41 1010.74 1011.20 1011.76 1012.35 1012.92 1013.45 1013.90 1014.28 1014.62 1014.95 1015.30 1015.69 1016.14 1016.62 1017.11 1017.59 1018.03 1018.42 1018.76 1019.05 1019.32
1012.14 1012.23 1012.25 1012.21 1012.09 1011.91 1011.70 1011.49 1011.30 1011.15 1011.05 1010.98 1010.93 1010.85 1010.72 1010.55 1010.32 1010.09 1009.89 1009.78 1009.80 1009.98 1010.33 1010.82 1011.41 1012.05 1012.68 1013.26 1013.76 1014.20 1014.58 1014.94 1015.30 1015.70 1016.14 1016.60 1017.08 1017.54 1017.97 1018.36 1018.71 1019.03 1019.34
1011.85 1011.92 1011.93 1011.85 1011.70 1011.49 1011.24 1011.00 1010.78 1010.62 1010.50 1010.43 1010.38 1010.30 1010.19 1010.03 1009.83 1009.62 1009.45 1009.36 1009.41 1009.62 1010.00 1010.53 1011.17 1011.86 1012.55 1013.19 1013.76 1014.25 1014.67 1015.06 1015.43 1015.82 1016.23 1016.67 1017.11 1017.54 1017.95 1018.32 1018.67 1018.99 1019.32
1011.65 1011.72 1011.71 1011.60 1011.41 1011.15 1010.86 1010.57 1010.30 1010.10 1009.95 1009.86 1009.79 1009.72 1009.62 1009.49 1009.32 1009.15 1009.01 1008.96 1009.05 1009.30 1009.72 1010.30 1011.00 1011.75 1012.50 1013.21 1013.84 1014.39 1014.86 1015.27 1015.65 1016.03 1016.41 1016.81 1017.20 1017.60 1017.97 1018.32 1018.64 1018.97 1019.30
1011.52 1011.59 1011.57 1011.43 1011.20 1010.89 1010.54 1010.19 1009.87 1009.60 1009.41 1009.27 1009.17 1009.09 1009.00 1008.89 1008.76 1008.63 1008.55 1008.56 1008.70 1009.00 1009.47 1010.10 1010.84 1011.65 1012.47 1013.24 1013.93 1014.53 1015.05 1015.49 1015.88 1016.25 1016.62 1016.98 1017.35 1017.70 1018.03 1018.35 1018.65 1018.95 1019.27
1011.39 1011.48 1011.45 1011.30 1011.04 1010.69 1010.29 1009.88 1009.49 1009.15 1008.88 1008.69 1008.55 1008.44 1008.35 1008.26 1008.16 1008.09 1008.06 1008.13 1008.32 1008.67 1009.19 1009.86 1010.65 1011.50 1012.37 1013.19 1013.94 1014.59 1015.15 1015.63 1016.05 1016.43 1016.79 1017.14 1017.48 1017.81 1018.12 1018.41 1018.69 1018.96 1019.25
1011.19 1011.30 1011.29 1011.14 1010.88 1010.52 1010.09 1009.63 1009.17 1008.76 1008.42 1008.16 1007.96 1007.82 1007.72 1007.63 1007.57 1007.54 1007.57 1007.69 1007.93 1008.33 1008.88 1009.58 1010.40 1011.28 1012.17 1013.03 1013.82 1014.51 1015.11 1015.63 1016.08 1016.48 1016.86 1017.22 1017.57 1017.90 1018.20 1018.48 1018.73 1018.98 1019.23
1010.89 1011.02 1011.04 1010.92 1010.68 1010.33 1009.90 1009.42 1008.93 1008.47 1008.07 1007.74 1007.48 1007.30 1007.17 1007.09 1007.05 1007.05 1007.13 1007.29 1007.58 1008.00 1008.58 1009.28 1010.10 1010.98 1011.88 1012.75 1013.55 1014.27 1014.90 1015.45 1015.94 1016.38 1016.79 1017.19 1017.57 1017.92 1018.24 1018.53 1018.79 1019.01 1019.23
1010.50 1010.64 1010.68 1010.61 1010.43 1010.13 1009.73 1009.28 1008.79 1008.30 1007.86 1007.49 1007.19 1006.97 1006.82 1006.73 1006.70 1006.73 1006.83 1007.02 1007.33 1007.77 1008.34 1009.03 1009.83 1010.68 1011.56 1012.41 1013.20 1013.92 1014.56 1015.13 1015.64 1016.12 1016.58 1017.03 1017.46 1017.86 1018.23 1018.55 1018.83 1019.06 1019.26
1010.10 1010.22 1010.27 1010.25 1010.13 1009.91 1009.59 1009.19 1008.75 1008.28 1007.84 1007.45 1007.13 1006.89 1006.72 1006.63 1006.60 1006.64 1006.76 1006.96 1007.28 1007.70 1008.25 1008.91 1009.66 1010.46 1011.29 1012.09 1012.84 1013.53 1014.16 1014.73 1015.26 1015.77 1016.27 1016.77 1017.26 1017.73 1018.16 1018.55 1018.87 1019.13 1019.34
1009.78 1009.85 1009.89 1009.91 1009.86 1009.72 1009.50 1009.19 1008.82 1008.41 1008.01 1007.64 1007.33 1007.08 1006.91 1006.81 1006.78 1006.83 1006.95 1007.15 1007.45 1007.86 1008.37 1008.98 1009.67 1010.40 1011.15 1011.89 1012.58 1013.22 1013.80 1014.35 1014.87 1015.38 1015.91 1016.46 1017.01 1017.55 1018.06 1018.53 1018.92 1019.23 1019.47
1009.68 1009.64 1009.64 1009.66 1009.65 1009.59 1009.46 1009.26 1008.98 1008.66 1008.33 1008.00 1007.72 1007.50 1007.34 1007.24 1007.22 1007.26 1007.37 1007.57 1007.85 1008.22 1008.69 1009.24 1009.86 1010.53 1011.20 1011.86 1012.47 1013.04 1013.57 1014.06 1014.55 1015.05 1015.59 1016.16 1016.76 1017.37 1017.96 1018.50 1018.98 1019.37 1019.66
Thickness
5735 5734 5728 5727 5726 5725 5724 5724 5723 5722 5722 5722 5721 5721 5721 5720 5720 5719 5719 5719 5719 5719 5719 5719 5719 5719 5718 5718 5718 5718 5718 5718 5718 5717 5718 5718 5718 5718 5718 5718 5719 5718 5717
5736 5732 5726 5725 5723 5722 5721 5720 5720 5719 5719 5719 5719 5719 5718 5718 5717 5717 5716 5716 5716 5716 5716 5716 5715 5715 5715 5715 5715 5715 5714 5714 5714 5714 5715 5715 5714 5714 5715 5715 5716 5715 5714
5732 5728 5723 5721 5720 5718 5717 5717 5716 5716 5716 5716 5716 5715 5715 5715 5714 5714 5714 5713 5713 5713 5713 5712 5712 5712 5711 5711 5711 5711 5711 5711 5711 5712 5713 5714 5712 5711 5711 5711 5712 5712 5711
5728 5724 5721 5717 5716 5715 5714 5713 5712 5712 5712 5712 5712 5712 5712 5711 5711 5711 5710 5710 5710 5709 5709 5709 5708 5708 5708 5707 5708 5708 5708 5708 5708 5710 5712 5712 5710 5708 5708 5708 5708 5708 5708
5722 5720 5716 5713 5712 5711 5710 5709 5708 5708 5708 5708 5708 5708 5708 5708 5707 5707 5707 5706 5706 5706 5705 5705 5705 5704 5704 5704 5704 5704 5704 5704 5705 5708 5709 5708 5707 5705 5705 5705 5705 5704 5704
5716 5714 5711 5709 5707 5706 5705 5705 5704 5704 5704 5704 5704 5704 5704 5704 5703 5703 5703 5702 5702 5702 5702 5701 5701 5701 5700 5700 5700 5700 5700 5701 5703 5705 5705 5704 5703 5702 5701 5701 5701 5701 5701
5710 5708 5705 5703 5702 5701 5701 5700 5700 5700 5699 5699 5699 5699 5699 5699 5699 5699 5699 5698 5698 5698 5698 5698 5697 5697 5697 5696 5696 5696 5697 5698 5701 5701 5701 5700 5699 5698 5698 5697 5697 5697 5697
5704 5702 5699 5697 5697 5696 5696 5695 5695 5695 5695 5695 5695 5695 5695 5695 5695 5695 5694 5694 5694 5694 5694 5694 5694 5693 5693 5692 5692 5692 5693 5694 5696 5697 5697 5696 5694 5694 5693 5693 5693 5693 5693
5697 5696 5694 5692 5691 5690 5690 5690 5690 5690 5690 5690 5690 5690 5690 5690 5690 5690 5690 5690 5690 5690 5690 5690 5690 5689 5689 5688 5688 5688 5689 5690 5694 5693 5692 5691 5689 5689 5689 5689 5688 5688 5688
5689 5689 5689 5687 5687 5685 5684 5684 5684 5684 5684 5684 5684 5684 5684 5684 5685 5685 5685 5685 5685 5685 5685 5685 5685 5685 5684 5684 5684 5684 5684 5686 5688 5688 5687 5686 5685 5685 5684 5684 5684 5683 5683
5681 5683 5683 5683 5682 5681 5680 5678 5677 5677 5678 5678 5678 5678 5679 5680 5680 5680 5680 5680 5680 5680 5680 5680 5680 5680 5679 5679 5679 5679 5680 5683 5683 5683 5681 5680 5680 5680 5679 5679 5679 5678 5678
5675 5676 5677 5677 5677 5676 5675 5673 5673 5673 5672 5673 5674 5673 5674 5675 5676 5675 5674 5674 5675 5675 5675 5674 5674 5674 5675 5675 5674 5675 5677 5677 5678 5676 5675 5674 5674 5674 5674 5674 5673 5673 5673
5671 5670 5671 5671 5671 5670 5669 5669 5668 5668 5668 5669 5669 5669 5669 5669 5669 5670 5669 5669 5669 5669 5670 5669 5670 5671 5671 5671 5671 5671 5671 5672 5672 5671 5669 5668 5669 5669 5669 5668 5668 5667 5667
5663 5663 5664 5664 5664 5664 5664 5663 5663 5663 5663 5663 5664 5664 5664 5664 5664 5665 5665 5665 5665 5665 5665 5666 5666 5665 5665 5666 5666 5666 5666 5666 5666 5664 5663 5662 5663 5663 5663 5662 5662 5662 5662
5654 5655 5656 5656 5657 5657 5657 5658 5658 5658 5658 5658 5657 5658 5658 5659 5659 5659 5660 5660 5660 5660 5660 5661 5661 5660 5660 5660 5660 5660 5660 5660 5659 5658 5657 5656 5656 5656 5656 5656 5657 5657 5656
5645 5647 5648 5649 5650 5650 5651 5652 5652 5652 5652 5652 5652 5652 5652 5653 5653 5653 5654 5654 5654 5655 5655 5655 5655 5655 5654 5654 5654 5654 5654 5653 5653 5652 5651 5650 5650 5650 5650 5650 5650 5650 5650
5638 5639 5640 5642 5642 5643 5644 5644 5645 5645 5645 5646 5646 5646 5646 5647 5647 5647 5648 5648 5648 5649 5649 5649 5649 5648 5647 5647 5647 5647 5647 5647 5646 5646 5645 5645 5644 5643 5643 5643 5643 5643 5643
5629 5631 5633 5634 5635 5636 5637 5637 5637 5638 5639 5639 5639 5639 5640 5640 5641 5641 5642 5642 5642 5642 5642 5642 5642 5642 5641 5641 5641 5640 5639 5639 5640 5640 5639 5639 5638 5638 5637 5637 5637 5636 5636
5621 5623 5624 5626 5627 5628 5629 5629 5630 5630 5631 5632 5632 5633 5633 5634 5634 5635 5636 5636 5636 5636 5636 5636 5636 5636 5635 5634 5633 5632 5632 5632 5632 5632 5633 5632 5631 5631 5631 5630 5630 5630 5630
5612 5614 5616 5618 5619 5620 5620 5620 5621 5622 5623 5624 5625 5626 5626 5627 5628 5629 5630 5630 5630 5630 5630 5630 5629 5629 5628 5627 5626 5624 5624 5624 5624 5625 5625 5625 5624 5624 5624 5624 5624 5624 5623
5601 5605 5607 5609 5611 5612 5612 5613 5615 5616 5616 5617 5618 5618 5619 5620 5621 5622 5623 5624 5624 5624 5624 5624 5623 5621 5620 5620 5618 5616 5616 5616 5617 5618 5618 5618 5618 5617 5617 5617 5617 5617 5617
5590 5594 5597 5600 5602 5604 5606 5607 5609 5609 5609 5610 5609 5610 5611 5613 5614 5616 5617 5617 5618 5618 5617 5618 5617 5615 5614 5613 5614 5612 5611 5610 5610 5610 5610 5610 5611 5610 5610 5610 5610 5610 5610
5578 5583 5587 5590 5593 5596 5598 5599 5599 5600 5600 5601 5602 5603 5605 5606 5608 5609 5610 5610 5611 5611 5611 5611 5611 5610 5609 5607 5608 5609 5608 5609 5606 5604 5603 5603 5603 5604 5603 5603 5603 5602 5602
5566 5570 5575 5580 5583 5586 5589 5591 5593 5595 5596 5598 5597 5597 5598 5599 5600 5602 5602 5603 5604 5604 5604 5604 5605 5605 5604 5602 5600 5601 5603 5605 5602 5600 5597 5597 5596 5596 5596 5596 5595 5595 5595
5552 5557 5563 5568 5572 5576 5580 5583 5585 5588 5590 5590 5589 5590 5591 5592 5593 5594 5595 5596 5596 5597 5597 5597 5597 5598 5598 5598 5596 5594 5593 5593 5595 5595 5594 5592 5590 5589 5589 5588 5588 5588 5587
5538 5544 5550 5556 5561 5565 5569 5573 5577 5580 5582 5582 5582 5583 5584 5585 5586 5587 5588 5589 5590 5590 5590 5590 5590 5591 5591 5592 5591 5590 5590 5589 5589 5589 5589 5586 5585 5584 5581 5581 5580 5580 5579